Orbital Elements at Epoch 2459000.5 (2020-May-31.0) TDB
Reference: JPL 25 (heliocentric ecliptic J2000)
Element | Value | Uncertainty (1-sigma) | Units |
e | .1652783056727444 | 3.5138e-08 | |
a | 2.392377152172839 | 1.1188e-08 | au |
q | 1.996969109931527 | 8.598e-08 | au |
i | 7.853372531818137 | 4.5869e-06 | deg |
node | 44.21065949209054 | 2.7938e-05 | deg |
peri | 77.69997087776567 | 3.1326e-05 | deg |
M | 24.4762615656894 | 1.3459e-05 | deg |
tp | 2458908.606354449349 (2020-Feb-29.10635445) | 5.0442e-05 | TDB |
period | 1351.58354593693 3.70 | 9.4812e-06 2.596e-08 | d yr |
n | .2663542339518824 | 1.8684e-09 | deg/d |
Q | 2.787785194414152 | 1.3037e-08 | au |
|
| | Orbit Determination Parameters
Additional Information
|